Weather History for Prestwick, United Kingdom

Change the Weather History Date:

Friday, November 30, 2012

  Actual Average Record
Temperature  
Mean Temperature 36 °F -  
Max Temperature 44 °F 44 °F 59 °F (2001)
Min Temperature 28 °F 34 °F 19 °F (2010)
Degree Days  
Heating Degree Days 29    
Moisture  
Dew Point 32 °F    
Average Humidity 92    
Maximum Humidity 100    
Minimum Humidity 87    
Precipitation  
Precipitation 0.00 in - - ()
Sea Level Pressure  
Sea Level Pressure 29.88 in    
Wind  
Wind Speed 3 mph ()    
Max Wind Speed 18 mph    
Max Gust Speed -    
Visibility 6.1 miles    
Events Rain    
Averages and records for this station are not official NWS values.
T = Trace of Precipitation, MM = Missing Value Source: Averaged Metar Reports

Daily Weather History Graph

Daily Weather History Graph

Search for Another Location

Airport:

Trip Planner

Search our weather history database for the weather conditions in past years. The results will help you decide how hot, cold, wet, or windy it might be!

Date:

Astronomy

Nov. 30, 2012 Rise Set
Actual Time 8:21 AM GMT 3:52 PM GMT
Civil Twilight 7:36 AM GMT 4:37 PM GMT
Nautical Twilight 6:49 AM GMT 5:24 PM GMT
Astronomical Twilight 6:05 AM GMT 6:08 PM GMT
Moon 5:36 PM GMT (11/30) 9:42 AM GMT (11/30)
Length of Visible Light 9h 00m
Length of Day
7h 31m
Full, 97% of the Moon is Illuminated
Nov 30
Full
Dec 6
Last Quarter
Dec 13
New
Dec 20
First Quarter
Dec 28
Full

Hourly Weather History & Observations

Time (GMT) Temp. Windchill Dew Point Humidity Pressure Visibility Wind Dir Wind Speed Gust Speed Precip Events Conditions
12:50 AM 30.2 °F - 28.4 °F 93% 29.86 in 6.2 mi Calm Calm - N/A   Partly Cloudy
1:50 AM 30.2 °F - 28.4 °F 93% 29.86 in 6.2 mi Calm Calm - N/A   Partly Cloudy
2:50 AM 28.4 °F - 26.6 °F 93% 29.83 in 6.2 mi ENE 2.3 mph - N/A   Partly Cloudy
3:50 AM 30.2 °F 26.7 °F 28.4 °F 93% 29.83 in 6.2 mi Variable 3.5 mph - N/A   Partly Cloudy
4:50 AM 28.4 °F 23.3 °F 28.4 °F 100% 29.83 in 6.2 mi East 4.6 mph - N/A   Partly Cloudy
5:50 AM 30.2 °F - 28.4 °F 93% 29.83 in 6.2 mi Calm Calm - N/A   Partly Cloudy
6:20 AM 28.4 °F 24.6 °F 26.6 °F 93% 29.83 in 6.2 mi East 3.5 mph - N/A   Partly Cloudy
6:50 AM 28.4 °F - 26.6 °F 93% 29.86 in 6.2 mi Calm Calm - N/A   Scattered Clouds
7:20 AM 28.4 °F - 26.6 °F 93% 29.86 in 6.2 mi ESE 2.3 mph - N/A   Scattered Clouds
7:50 AM 30.2 °F 25.4 °F 28.4 °F 93% 29.86 in 6.2 mi East 4.6 mph - N/A   Partly Cloudy
8:20 AM 30.2 °F - 28.4 °F 93% 29.86 in 6.2 mi East 2.3 mph - N/A   Partly Cloudy
8:50 AM 30.2 °F - 28.4 °F 93% 29.89 in 6.2 mi Calm Calm - N/A   Partly Cloudy
9:20 AM 30.2 °F - 28.4 °F 93% 29.89 in 6.2 mi Calm Calm - N/A   Partly Cloudy
9:50 AM 30.2 °F 26.7 °F 28.4 °F 93% 29.89 in 6.2 mi ESE 3.5 mph - N/A   Partly Cloudy
10:20 AM 32.0 °F - 30.2 °F 93% 29.89 in 6.2 mi Calm Calm - N/A   Partly Cloudy
10:50 AM 32.0 °F - 30.2 °F 93% 29.89 in 6.2 mi Variable 2.3 mph - N/A   Partly Cloudy
11:20 AM 33.8 °F - 32.0 °F 93% 29.92 in 6.2 mi Calm Calm - N/A   Partly Cloudy
11:50 AM 35.6 °F 32.8 °F 33.8 °F 93% 29.89 in 6.2 mi ESE 3.5 mph - N/A   Partly Cloudy
12:20 PM 37.4 °F - 33.8 °F 87% 29.89 in 6.2 mi Calm Calm - N/A   Partly Cloudy
12:50 PM 37.4 °F - 33.8 °F 87% 29.89 in 6.2 mi ESE 2.3 mph - N/A   Partly Cloudy
1:20 PM 37.4 °F - 33.8 °F 87% 29.89 in 6.2 mi Calm Calm - N/A   Partly Cloudy
1:50 PM 37.4 °F - 33.8 °F 87% 29.89 in 6.2 mi Calm Calm - N/A   Partly Cloudy
2:20 PM 35.6 °F 32.8 °F 32.0 °F 87% 29.89 in 6.2 mi ESE 3.5 mph - N/A   Partly Cloudy
2:50 PM 33.8 °F 30.8 °F 32.0 °F 93% 29.89 in 6.2 mi East 3.5 mph - N/A   Partly Cloudy
3:20 PM 33.8 °F - 32.0 °F 93% 29.92 in 6.2 mi East 2.3 mph - N/A   Partly Cloudy
3:50 PM 33.8 °F 30.8 °F 32.0 °F 93% 29.92 in 6.2 mi ESE 3.5 mph - N/A   Partly Cloudy
4:20 PM 33.8 °F 30.8 °F 32.0 °F 93% 29.92 in 6.2 mi ESE 3.5 mph - N/A   Partly Cloudy
4:50 PM 33.8 °F 29.6 °F 32.0 °F 93% 29.92 in 6.2 mi ESE 4.6 mph - N/A   Partly Cloudy
5:20 PM 33.8 °F 29.6 °F 32.0 °F 93% 29.92 in 6.2 mi ESE 4.6 mph - N/A   Partly Cloudy
5:50 PM 35.6 °F 31.7 °F 33.8 °F 93% 29.92 in 6.2 mi ESE 4.6 mph - N/A   Partly Cloudy
6:20 PM 35.6 °F 30.7 °F 33.8 °F 93% 29.92 in 6.2 mi ESE 5.8 mph - N/A   Partly Cloudy
6:50 PM 35.6 °F 30.7 °F 33.8 °F 93% 29.92 in 6.2 mi ESE 5.8 mph - N/A   Partly Cloudy
7:20 PM 35.6 °F 30.7 °F 33.8 °F 93% 29.92 in 6.2 mi SE 5.8 mph - N/A   Scattered Clouds
7:50 PM 35.6 °F 31.7 °F 35.6 °F 100% 29.89 in 6.2 mi South 4.6 mph - N/A   Scattered Clouds
8:20 PM 37.4 °F 34.9 °F 35.6 °F 93% 29.89 in 6.2 mi SSE 3.5 mph - N/A   Scattered Clouds
8:50 PM 37.4 °F 33.8 °F 35.6 °F 93% 29.89 in 6.2 mi SSE 4.6 mph - N/A Rain Light Rain
9:20 PM 42.8 °F 34.8 °F 41.0 °F 93% 29.89 in 6.2 mi WSW 17.3 mph - N/A Rain Light Rain
9:50 PM 42.8 °F 34.8 °F 41.0 °F 93% 29.89 in 6.2 mi West 17.3 mph - N/A Rain Light Rain
10:20 PM 44.6 °F 36.9 °F 41.0 °F 87% 29.86 in 5.6 mi WSW 18.4 mph - N/A Rain Light Rain
10:50 PM 44.6 °F 37.4 °F 41.0 °F 87% 29.86 in 5.6 mi WSW 16.1 mph - N/A Rain Light Rain
11:20 PM 44.6 °F 37.4 °F 41.0 °F 87% 29.86 in 5.6 mi WNW 16.1 mph - N/A Rain Light Rain
11:50 PM 42.8 °F 35.8 °F 39.2 °F 87% 29.86 in 5.6 mi NW 13.8 mph - N/A   Scattered Clouds